Theta_e
345 346 345 343 343 343 343 342 343 343 341 342 343 344 339 338 330 336 339 336 336 331 331 331 332 331 334 336 339 339 339 338 339 337 340 341 339 345 346 344 343 342 337
347 346 346 343 344 346 344 343 343 342 341 342 343 343 340 333 338 343 337 338 335 325 325 325 327 330 333 332 333 340 339 340 339 338 337 337 338 342 344 344 336 335 337
350 347 345 344 343 342 342 342 341 338 335 335 336 335 334 338 339 338 335 340 333 334 331 329 330 329 328 338 332 338 337 339 341 345 347 348 344 337 338 334 333 337 336
348 347 345 334 332 332 332 332 333 334 335 335 335 338 338 339 343 338 333 342 341 338 336 328 339 340 331 336 332 334 337 339 347 347 346 348 345 336 337 334 335 334 327
345 344 340 334 332 338 335 338 340 341 341 341 340 339 339 341 342 341 337 341 338 341 340 337 335 336 335 329 333 334 333 339 345 349 346 348 345 338 335 340 341 338 337
345 344 335 332 338 340 338 339 338 338 342 340 340 340 342 341 338 339 341 339 337 338 340 339 338 337 333 332 329 331 342 345 346 347 347 347 344 336 339 338 337 326 333
345 345 345 335 343 339 336 336 339 340 343 341 342 342 343 342 340 340 340 338 336 334 340 340 339 336 335 335 330 335 345 344 346 347 345 348 340 337 339 337 336 328 338
343 344 342 339 341 332 343 342 340 339 339 340 345 343 344 343 339 337 335 335 335 333 339 341 339 336 334 334 334 331 343 345 345 346 347 344 338 335 336 337 336 325 327
342 345 346 347 340 333 341 342 341 340 344 346 343 340 335 332 334 336 335 334 334 333 339 340 339 336 335 331 332 334 342 343 342 346 345 342 339 335 335 338 331 332 335
342 343 345 346 349 346 343 342 340 342 341 340 338 334 332 335 337 342 341 337 335 335 338 338 338 338 337 336 332 337 341 343 342 345 343 336 335 336 336 335 335 334 332
342 343 342 344 348 346 349 342 341 341 339 339 336 344 346 346 346 347 339 338 336 336 337 338 337 337 335 334 336 342 343 341 342 343 341 335 334 335 336 335 334 334 331
341 342 342 344 345 345 345 343 348 347 347 348 345 348 347 347 346 344 338 338 338 337 338 339 346 342 346 346 345 343 342 341 341 343 341 338 337 336 336 335 335 334 332
340 342 341 344 344 343 346 348 346 348 345 348 347 348 345 345 346 345 344 344 341 343 344 344 344 347 346 346 345 342 341 339 342 342 332 334 336 334 331 332 334 334 333
340 341 341 343 346 346 343 346 347 346 344 345 347 349 344 349 348 347 347 346 347 348 344 344 346 346 346 345 344 343 342 340 339 342 330 334 334 333 335 336 330 333 335
340 341 342 344 346 349 348 348 347 344 344 347 348 349 349 348 347 347 347 346 347 344 342 342 343 345 345 346 346 344 342 341 341 342 336 326 325 332 333 336 336 334 330
340 340 343 345 347 347 347 347 346 344 348 346 348 348 349 349 348 348 346 346 345 345 346 345 345 344 345 344 345 346 344 344 344 344 342 327 326 327 325 325 330 327 324
340 340 343 345 347 348 349 348 345 346 348 348 348 346 351 349 350 349 348 345 347 348 348 346 341 339 340 344 342 346 342 344 345 345 343 343 342 340 329 325 327 329 326
341 340 343 343 346 347 350 348 348 346 347 347 348 350 350 352 350 349 347 348 346 346 346 344 342 341 339 342 343 344 343 343 344 344 345 345 346 346 342 337 334 329 328
342 342 343 344 346 347 350 348 349 348 348 347 348 349 347 353 346 351 349 350 341 347 343 345 341 342 340 338 340 341 343 341 344 344 343 344 343 345 347 341 333 334 332
342 343 344 344 345 347 349 349 348 349 349 349 349 350 348 352 352 347 350 348 347 346 346 345 343 342 343 342 343 342 343 341 340 342 342 341 342 343 343 344 343 346 337
343 344 345 345 345 346 348 347 346 347 348 349 350 352 350 353 352 346 352 343 347 347 349 344 344 344 336 338 342 340 340 339 341 341 339 340 339 340 340 342 343 343 345
344 346 345 345 345 346 346 345 346 346 348 348 347 352 352 351 353 353 352 351 349 348 349 348 349 344 342 339 340 341 340 340 343 340 338 339 341 341 343 342 342 337 340
345 346 346 346 345 344 344 344 346 347 348 347 350 351 351 352 353 354 346 352 349 349 349 345 344 347 345 343 345 339 342 340 338 336 338 340 343 343 343 341 343 342 342
344 346 347 346 345 344 342 343 345 347 346 347 348 348 350 352 352 353 354 352 343 351 350 349 347 347 346 343 340 342 341 342 343 338 340 341 343 343 344 344 344 344 343
345 346 347 347 347 344 336 342 344 347 346 346 347 349 349 351 353 352 353 349 347 348 350 349 351 346 343 347 340 339 340 335 342 343 344 343 343 342 343 345 342 342 344
347 346 348 348 347 343 338 334 343 345 346 344 345 351 348 352 351 352 353 352 347 353 351 352 351 347 347 344 344 340 337 340 340 342 341 341 342 343 342 342 342 342 342
Wind_Speed
24 20 20 20 18 14 13 12 11 11 8 9 9 9 7 6 6 8 8 8 8 7 5 5 6 7 8 9 10 11 12 13 13 14 16 16 18 18 20 21 18 14 14
21 20 20 19 17 14 13 12 12 11 9 8 8 7 5 5 7 8 8 9 8 8 8 8 8 7 7 8 9 11 12 12 15 14 15 13 15 14 15 17 11 15 15
23 21 21 20 17 15 13 11 10 8 7 7 7 6 5 7 8 7 8 10 9 10 11 11 11 11 10 10 11 12 11 12 14 17 17 14 13 13 12 12 14 15 15
23 19 18 18 16 14 12 11 9 8 8 8 8 8 8 8 8 8 9 8 9 12 13 13 12 13 13 11 11 11 11 16 14 17 13 14 11 14 13 15 16 16 14
22 19 18 18 16 14 13 13 11 11 10 10 9 9 9 10 9 9 8 8 9 11 12 13 14 13 13 12 12 13 17 16 10 14 11 14 11 14 16 15 14 15 13
22 19 20 18 16 15 14 13 12 12 11 11 10 10 11 10 9 8 8 9 10 11 13 13 13 13 14 13 12 17 20 16 17 10 12 13 11 12 13 12 12 13 14
23 19 19 19 15 14 14 13 12 12 12 12 12 12 12 10 9 8 8 9 10 11 12 13 13 13 12 12 13 19 18 19 13 10 10 11 12 12 13 12 12 13 13
20 19 18 18 15 15 14 13 13 12 14 14 14 14 12 11 11 10 9 9 10 12 12 12 13 13 13 12 13 18 21 15 9 13 12 10 12 11 11 12 10 12 11
21 19 17 15 15 16 14 14 13 14 16 14 13 12 11 11 12 12 11 10 11 13 12 13 14 13 14 15 15 17 19 18 15 11 11 9 11 11 11 11 11 11 11
22 18 17 15 12 14 12 13 14 14 15 14 13 13 12 14 15 16 14 13 14 14 12 13 14 13 14 15 18 21 21 17 8 14 7 9 10 10 10 10 11 10 10
21 20 17 16 14 12 10 12 13 14 13 12 15 17 14 10 10 10 11 15 15 14 13 14 14 16 17 17 18 18 15 10 9 10 8 10 10 9 9 9 9 9 9
23 21 20 17 16 13 12 11 9 10 8 9 9 9 10 5 13 10 14 16 16 15 14 14 9 17 17 12 13 16 11 9 8 9 7 10 9 8 8 8 8 8 8
23 21 20 17 16 14 14 12 10 10 8 7 7 7 9 7 10 9 10 10 12 13 10 7 8 9 11 13 11 12 8 9 9 8 6 9 7 7 7 7 7 6 6
24 21 20 18 16 14 12 14 12 11 9 7 7 7 8 10 3 8 5 7 6 10 7 6 9 6 7 17 12 11 7 6 8 6 7 8 7 6 7 6 7 6 5
24 22 20 19 18 13 14 11 11 10 10 10 7 8 7 8 9 6 5 11 4 9 9 6 5 5 5 5 12 11 7 8 7 7 4 6 6 6 6 6 5 4 3
24 23 21 19 18 16 14 15 12 11 10 8 8 6 7 12 7 5 6 6 4 12 8 10 6 5 4 6 5 8 11 6 9 10 5 7 5 4 4 4 4 3 2
25 23 22 20 18 17 13 14 13 11 8 8 9 8 8 6 9 7 4 10 4 3 4 6 8 7 4 7 5 4 6 7 5 7 5 4 4 6 3 2 2 2 2
25 24 22 20 18 17 14 16 11 10 10 9 7 5 7 5 8 3 5 1 5 8 6 5 7 6 5 5 8 6 8 6 5 6 6 5 4 3 5 4 2 1 1
25 25 23 21 20 19 17 15 12 11 12 11 8 9 7 6 5 8 3 6 6 7 8 4 8 6 4 6 7 5 6 4 4 7 4 3 2 4 3 6 6 5 5
26 25 24 23 21 20 17 15 13 10 10 10 9 10 8 6 5 9 7 5 7 5 10 9 6 6 6 6 6 10 6 4 3 3 3 4 1 3 4 4 6 6 9
27 26 26 25 24 22 18 18 16 14 12 11 9 7 7 8 7 8 5 3 11 4 4 7 4 5 6 4 4 6 4 3 3 2 2 3 2 4 3 2 5 4 7
30 28 28 28 26 25 20 19 16 16 13 11 9 9 8 9 8 6 5 5 4 7 5 7 6 9 8 4 9 4 5 6 6 3 2 2 2 1 1 1 2 3 3
32 31 30 31 29 27 21 20 18 16 13 13 13 10 10 9 8 8 7 6 9 7 7 8 7 5 8 5 7 4 2 3 7 4 3 3 1 2 2 2 1 3 3
35 31 31 32 32 28 28 21 22 19 18 15 14 12 12 12 10 7 7 6 6 4 6 5 6 6 5 6 5 4 3 4 4 5 5 4 3 3 4 3 4 4 4
36 34 33 33 33 30 33 25 25 22 18 15 14 15 13 12 12 10 9 10 6 8 8 10 8 10 7 4 7 5 3 3 3 7 4 7 3 4 4 1 3 4 6
36 35 34 36 37 36 34 33 28 26 22 18 17 15 14 12 12 13 11 10 7 7 9 8 7 9 9 9 5 6 6 7 4 2 1 1 1 2 3 4 5 5 6
Wind_Direction
159 152 153 154 152 154 154 155 151 144 132 140 145 137 116 93 91 95 96 82 72 72 77 90 99 110 117 108 102 104 103 98 90 89 90 91 92 91 92 87 67 87 86
147 150 150 154 154 148 150 148 146 145 137 135 138 138 125 111 108 106 97 90 73 66 80 87 92 108 116 124 116 111 108 104 92 89 80 87 95 100 97 105 107 89 89
142 148 144 146 146 146 147 145 149 154 149 146 148 149 138 128 120 101 102 89 72 81 81 96 91 95 105 117 126 120 115 107 94 90 86 92 95 96 102 97 94 91 90
142 138 146 146 148 147 147 144 142 143 140 135 137 135 132 125 113 106 109 96 80 82 82 95 98 92 91 110 119 123 115 108 99 93 95 95 99 92 89 93 91 86 87
139 145 154 144 144 137 140 137 137 131 126 125 128 131 124 116 112 106 101 94 88 91 89 91 93 97 95 104 113 111 106 107 91 99 116 107 97 93 91 85 91 92 97
141 151 143 142 138 138 134 136 130 127 121 117 120 118 112 110 104 97 88 81 94 95 90 93 87 100 93 96 105 111 113 102 95 103 97 109 118 94 100 105 101 94 99
145 146 141 143 139 141 137 133 130 127 118 117 113 111 108 102 97 96 96 89 95 98 94 89 89 93 99 93 100 118 106 100 98 92 96 98 94 95 103 103 96 93 96
147 144 144 143 141 142 134 134 131 129 122 120 113 107 104 99 95 91 91 93 95 105 100 96 95 92 91 95 99 123 112 109 84 102 96 102 94 99 101 100 98 94 98
147 151 146 142 140 144 140 134 130 127 124 124 116 109 107 102 89 80 88 98 104 113 104 92 100 98 94 92 96 107 109 104 101 112 93 89 96 101 99 100 92 94 92
153 151 145 147 136 137 141 137 136 132 128 126 117 104 101 93 84 77 69 95 108 114 106 98 101 100 97 95 93 95 93 88 85 104 89 105 98 105 109 105 103 105 96
156 156 154 152 147 148 155 143 140 135 132 121 114 95 91 90 85 91 102 101 106 115 110 106 111 111 97 85 92 88 82 94 102 96 95 101 100 103 103 99 102 101 97
160 160 160 158 157 149 148 134 139 133 125 129 140 91 99 154 120 113 99 100 101 104 105 105 105 110 112 97 82 85 82 98 96 99 113 102 97 104 106 103 107 106 99
164 163 162 160 158 155 166 144 146 145 149 159 143 152 141 128 135 114 89 93 95 93 97 95 52 76 108 91 102 91 111 103 111 103 110 112 112 97 100 103 105 105 101
167 166 166 167 162 163 152 164 156 154 159 161 169 143 154 136 72 142 137 139 177 142 109 115 60 82 62 87 91 94 110 112 114 99 122 124 125 119 104 103 98 99 99
171 170 170 170 167 167 170 159 165 160 158 160 175 172 197 139 148 131 171 146 166 135 108 107 87 95 122 122 105 117 103 104 110 114 122 117 122 128 123 117 104 102 100
174 174 174 174 170 170 175 166 162 164 174 169 164 182 161 149 158 141 137 142 205 132 174 118 124 105 125 72 124 99 94 105 125 104 116 80 86 96 116 137 140 137 135
177 177 179 177 173 174 177 168 166 175 167 172 185 225 161 131 165 151 147 166 126 144 121 123 114 136 118 110 101 119 104 102 101 120 149 39 58 51 43 107 157 168 159
178 179 180 179 178 177 175 172 176 184 169 175 173 176 164 163 168 200 151 182 145 155 128 95 159 151 120 130 118 142 77 101 114 119 110 60 40 39 7 13 334 298 270
181 181 182 179 181 180 181 178 176 183 179 178 175 185 183 176 173 140 171 142 199 109 136 151 128 119 150 131 141 137 131 96 145 105 79 114 163 359 142 332 22 22 359
186 185 184 182 186 184 188 180 177 186 182 182 174 185 222 174 190 151 172 173 136 194 172 148 140 145 139 145 44 118 132 122 105 85 88 122 137 132 257 309 346 334 346
189 188 187 186 190 188 188 183 183 186 185 184 186 189 195 182 189 146 161 152 142 162 106 151 167 138 158 187 114 135 137 156 135 174 125 132 36 139 212 223 138 293 317
192 192 190 190 195 192 191 187 189 187 189 194 199 202 187 193 197 180 151 169 200 163 162 187 207 193 185 148 177 196 169 170 193 171 164 165 149 139 168 62 227 200 182
196 195 195 193 197 197 189 189 190 194 198 198 194 202 194 193 195 173 186 188 201 173 185 181 187 198 186 188 253 197 284 256 155 205 201 189 155 189 200 269 204 252 237
199 198 199 198 199 202 184 197 194 190 194 199 201 203 202 194 197 207 203 194 174 194 144 167 210 211 202 195 188 208 262 315 328 154 189 204 226 214 219 225 232 251 244
198 200 200 204 202 199 203 191 202 193 201 199 200 195 191 208 198 204 219 205 207 175 199 189 199 178 212 214 199 185 202 207 264 340 169 164 188 207 224 256 220 234 282
201 202 202 205 207 202 211 198 201 205 198 205 201 199 200 204 207 205 217 231 211 188 199 195 193 203 187 211 212 183 178 185 186 214 291 149 352 182 213 233 243 235 241